Time,TemperatureF,DewpointF,PressureIn,WindDirection,WindDirectionDegrees,WindSpeedMPH,WindSpeedGustMPH,Humidity,HourlyPrecipIn,Conditions,Clouds,dailyrainin,SoftwareType,DateUTC
2013-04-12 00:03:00,65.0,64.0,29.78,South,173,3.0,5.0,95,0.28,,,0.28,,2013-04-12 04:03:00,
2013-04-12 00:13:00,65.0,64.0,29.78,South,173,3.0,5.0,95,0.28,,,0.28,,2013-04-12 04:13:00,
2013-04-12 00:23:00,65.0,64.0,29.78,SE,140,4.0,7.0,95,0.06,,,0.28,,2013-04-12 04:23:00,
2013-04-12 00:33:00,66.0,65.0,29.77,South,181,7.0,10.0,96,0.03,,,0.28,,2013-04-12 04:33:00,
2013-04-12 00:43:00,66.0,65.0,29.77,South,181,7.0,10.0,96,0.03,,,0.28,,2013-04-12 04:43:00,
2013-04-12 00:53:00,66.0,65.0,29.77,South,187,4.0,10.0,95,0.01,,,0.28,,2013-04-12 04:53:00,
2013-04-12 01:03:00,66.0,65.0,29.76,SSW,209,7.0,16.0,95,0.00,,,0.28,,2013-04-12 05:03:00,
2013-04-12 01:12:00,66.0,65.0,29.76,SSW,209,7.0,16.0,95,0.00,,,0.28,,2013-04-12 05:12:00,
2013-04-12 01:23:00,66.0,65.0,29.76,SW,236,4.0,13.0,95,0.01,,,0.29,,2013-04-12 05:23:00,
2013-04-12 01:32:00,66.0,65.0,29.74,South,184,7.0,18.0,95,0.01,,,0.29,,2013-04-12 05:32:00,
2013-04-12 01:42:00,66.0,65.0,29.74,South,184,7.0,18.0,95,0.01,,,0.29,,2013-04-12 05:42:00,
2013-04-12 01:52:00,66.0,65.0,29.73,SSE,165,7.0,13.0,95,0.01,,,0.29,,2013-04-12 05:52:00,
2013-04-12 02:02:00,66.0,64.0,29.73,SSW,197,9.0,16.0,94,0.01,,,0.29,,2013-04-12 06:02:00,
2013-04-12 02:12:00,66.0,64.0,29.73,SSW,197,9.0,16.0,94,0.01,,,0.29,,2013-04-12 06:12:00,
2013-04-12 02:22:00,66.0,64.0,29.72,South,180,9.0,16.0,93,0.00,,,0.29,,2013-04-12 06:22:00,
2013-04-12 02:32:00,66.0,64.0,29.72,SW,236,8.0,17.0,93,0.02,,,0.31,,2013-04-12 06:32:00,
2013-04-12 02:42:00,66.0,64.0,29.72,SW,236,8.0,17.0,93,0.02,,,0.31,,2013-04-12 06:42:00,
2013-04-12 02:52:00,66.0,64.0,29.73,WSW,245,7.0,19.0,94,0.14,,,0.43,,2013-04-12 06:52:00,
2013-04-12 03:02:00,66.0,65.0,29.72,South,180,4.0,12.0,95,0.20,,,0.49,,2013-04-12 07:02:00,
2013-04-12 03:12:00,66.0,65.0,29.72,South,180,4.0,12.0,95,0.20,,,0.49,,2013-04-12 07:12:00,
2013-04-12 03:22:00,65.0,64.0,29.70,SSW,198,4.0,10.0,95,0.34,,,0.63,,2013-04-12 07:22:00,
2013-04-12 03:32:00,65.0,64.0,29.69,SW,221,4.0,9.0,96,0.40,,,0.71,,2013-04-12 07:32:00,
2013-04-12 03:42:00,65.0,64.0,29.69,SW,221,4.0,9.0,96,0.40,,,0.71,,2013-04-12 07:42:00,
2013-04-12 03:52:00,63.0,61.0,29.70,WSW,254,9.0,25.0,94,0.65,,,1.09,,2013-04-12 07:52:00,
2013-04-12 04:03:00,62.0,60.0,29.70,SW,236,9.0,16.0,94,0.64,,,1.13,,2013-04-12 08:03:00,
2013-04-12 04:12:00,62.0,60.0,29.70,SW,236,9.0,16.0,94,0.64,,,1.13,,2013-04-12 08:12:00,
2013-04-12 04:22:00,62.0,61.0,29.71,WSW,240,6.0,12.0,95,0.54,,,1.17,,2013-04-12 08:22:00,
2013-04-12 04:32:00,62.0,61.0,29.68,West,262,2.0,9.0,96,0.49,,,1.20,,2013-04-12 08:32:00,
2013-04-12 04:42:00,62.0,61.0,29.68,West,262,2.0,9.0,96,0.49,,,1.20,,2013-04-12 08:42:00,
2013-04-12 04:53:00,62.0,61.0,29.70,SSW,210,2.0,5.0,96,0.11,,,1.20,,2013-04-12 08:53:00,
2013-04-12 05:02:00,62.0,61.0,29.71,SSW,207,5.0,8.0,96,0.06,,,1.20,,2013-04-12 09:02:00,
2013-04-12 05:12:00,62.0,61.0,29.71,SSW,207,5.0,8.0,96,0.06,,,1.20,,2013-04-12 09:12:00,
2013-04-12 05:22:00,62.0,61.0,29.70,South,183,3.0,7.0,96,0.03,,,1.20,,2013-04-12 09:22:00,
2013-04-12 05:33:00,61.0,60.0,29.70,South,175,3.0,6.0,97,0.00,,,1.20,,2013-04-12 09:33:00,
2013-04-12 05:43:00,61.0,60.0,29.70,South,175,3.0,6.0,97,0.00,,,1.20,,2013-04-12 09:43:00,
2013-04-12 05:53:00,61.0,60.0,29.70,SSE,160,0.0,6.0,97,0.00,,,1.20,,2013-04-12 09:53:00,
2013-04-12 06:03:00,61.0,60.0,29.70,SSE,160,0.0,6.0,97,0.00,,,1.20,,2013-04-12 10:03:00,
2013-04-12 06:13:00,61.0,60.0,29.69,SSE,162,0.0,3.0,97,0.00,,,1.20,,2013-04-12 10:13:00,
2013-04-12 06:23:00,61.0,60.0,29.69,SSE,162,0.0,3.0,97,0.00,,,1.20,,2013-04-12 10:23:00,
2013-04-12 06:34:00,61.0,60.0,29.70,South,170,2.0,4.0,97,0.00,,,1.20,,2013-04-12 10:34:00,
2013-04-12 06:43:00,61.0,60.0,29.70,South,170,2.0,4.0,97,0.00,,,1.20,,2013-04-12 10:43:00,
2013-04-12 06:53:00,61.0,60.0,29.69,SE,129,2.0,5.0,97,0.00,,,1.20,,2013-04-12 10:53:00,
2013-04-12 07:03:00,61.0,60.0,29.69,SSW,194,4.0,7.0,97,0.00,,,1.20,,2013-04-12 11:03:00,
2013-04-12 07:13:00,61.0,60.0,29.69,SSW,194,4.0,7.0,97,0.00,,,1.20,,2013-04-12 11:13:00,
2013-04-12 07:22:00,61.0,60.0,29.69,SSW,201,4.0,7.0,97,0.00,,,1.20,,2013-04-12 11:22:00,
2013-04-12 07:32:00,61.0,60.0,29.70,South,182,3.0,7.0,97,0.00,,,1.20,,2013-04-12 11:32:00,
2013-04-12 07:42:00,61.0,60.0,29.70,South,182,3.0,7.0,97,0.00,,,1.20,,2013-04-12 11:42:00,
2013-04-12 07:52:00,61.0,60.0,29.70,SW,222,5.0,8.0,97,0.00,,,1.20,,2013-04-12 11:52:00,
2013-04-12 08:02:00,62.0,61.0,29.70,SW,226,5.0,12.0,97,0.00,,,1.20,,2013-04-12 12:02:00,
2013-04-12 08:13:00,62.0,61.0,29.70,SW,226,5.0,12.0,97,0.00,,,1.20,,2013-04-12 12:13:00,
2013-04-12 08:22:00,62.0,61.0,29.69,SSW,209,5.0,10.0,97,0.00,,,1.20,,2013-04-12 12:22:00,
2013-04-12 08:33:00,62.0,61.0,29.70,South,187,4.0,8.0,96,0.00,,,1.20,,2013-04-12 12:33:00,
2013-04-12 08:42:00,62.0,61.0,29.70,South,187,4.0,8.0,96,0.00,,,1.20,,2013-04-12 12:42:00,
2013-04-12 08:53:00,63.0,62.0,29.69,WSW,241,8.0,13.0,96,0.00,,,1.20,,2013-04-12 12:53:00,
2013-04-12 09:03:00,64.0,62.0,29.70,SW,236,7.0,14.0,94,0.00,,,1.20,,2013-04-12 13:03:00,
2013-04-12 09:12:00,64.0,62.0,29.70,SW,236,7.0,14.0,94,0.00,,,1.20,,2013-04-12 13:12:00,
2013-04-12 09:22:00,65.0,62.0,29.70,WSW,254,8.0,14.0,91,0.00,,,1.20,,2013-04-12 13:22:00,
2013-04-12 09:32:00,66.0,63.0,29.71,SW,236,9.0,14.0,90,0.00,,,1.20,,2013-04-12 13:32:00,
2013-04-12 09:42:00,66.0,63.0,29.71,SW,236,9.0,14.0,90,0.00,,,1.20,,2013-04-12 13:42:00,
2013-04-12 09:53:00,66.0,62.0,29.71,WSW,237,6.0,16.0,88,0.00,,,1.20,,2013-04-12 13:53:00,
2013-04-12 10:03:00,67.0,63.0,29.71,WSW,252,8.0,13.0,86,0.00,,,1.20,,2013-04-12 14:03:00,
2013-04-12 10:13:00,67.0,63.0,29.71,WSW,252,8.0,13.0,86,0.00,,,1.20,,2013-04-12 14:13:00,
2013-04-12 10:23:00,68.0,62.0,29.71,West,267,10.0,19.0,82,0.01,,,1.21,,2013-04-12 14:23:00,
2013-04-12 10:33:00,68.0,62.0,29.72,West,277,8.0,15.0,82,0.01,,,1.21,,2013-04-12 14:33:00,
2013-04-12 10:42:00,68.0,62.0,29.72,West,277,8.0,15.0,82,0.01,,,1.21,,2013-04-12 14:42:00,
2013-04-12 10:54:00,69.0,63.0,29.71,WSW,237,9.0,14.0,80,0.01,,,1.21,,2013-04-12 14:54:00,
2013-04-12 11:03:00,70.0,63.0,29.72,WSW,248,7.0,13.0,78,0.01,,,1.21,,2013-04-12 15:03:00,
2013-04-12 11:12:00,70.0,63.0,29.72,WSW,248,7.0,13.0,78,0.01,,,1.21,,2013-04-12 15:12:00,
2013-04-12 11:22:00,71.0,62.0,29.72,West,277,5.0,9.0,73,0.00,,,1.21,,2013-04-12 15:22:00,
2013-04-12 11:33:00,71.0,62.0,29.71,WSW,257,4.0,8.0,72,0.00,,,1.21,,2013-04-12 15:33:00,
2013-04-12 11:43:00,71.0,62.0,29.71,WSW,257,4.0,8.0,72,0.00,,,1.21,,2013-04-12 15:43:00,
2013-04-12 11:53:00,71.0,61.0,29.72,West,277,5.0,10.0,70,0.00,,,1.21,,2013-04-12 15:53:00,
2013-04-12 12:04:00,73.0,61.0,29.71,West,263,4.0,10.0,65,0.00,,,1.21,,2013-04-12 16:04:00,
2013-04-12 12:13:00,73.0,61.0,29.71,West,263,4.0,10.0,65,0.00,,,1.21,,2013-04-12 16:13:00,
2013-04-12 12:23:00,73.0,59.0,29.71,WNW,297,4.0,9.0,62,0.00,,,1.21,,2013-04-12 16:23:00,
2013-04-12 12:33:00,74.0,60.0,29.72,NW,305,5.0,10.0,61,0.00,,,1.21,,2013-04-12 16:33:00,
2013-04-12 12:42:00,74.0,60.0,29.72,NW,305,5.0,10.0,61,0.00,,,1.21,,2013-04-12 16:42:00,
2013-04-12 12:53:00,74.0,58.0,29.72,WNW,295,6.0,10.0,58,0.00,,,1.21,,2013-04-12 16:53:00,
2013-04-12 13:03:00,75.0,58.0,29.71,WNW,286,5.0,12.0,56,0.00,,,1.21,,2013-04-12 17:03:00,
2013-04-12 13:12:00,75.0,58.0,29.71,WNW,286,5.0,12.0,56,0.00,,,1.21,,2013-04-12 17:12:00,
2013-04-12 13:23:00,75.0,58.0,29.70,WSW,254,4.0,11.0,56,0.00,,,1.21,,2013-04-12 17:23:00,
2013-04-12 13:33:00,75.0,56.0,29.70,North,355,5.0,13.0,51,0.00,,,1.21,,2013-04-12 17:33:00,
2013-04-12 13:45:00,75.0,56.0,29.70,North,355,5.0,13.0,51,0.00,,,1.21,,2013-04-12 17:45:00,
2013-04-12 14:06:00,75.0,55.0,29.70,WSW,241,8.0,13.0,49,0.00,,,1.21,,2013-04-12 18:06:00,
2013-04-12 15:26:00,77.0,52.0,29.68,West,272,9.0,15.0,42,0.00,,,1.21,,2013-04-12 19:26:00,
2013-04-12 15:27:00,77.0,52.0,29.68,West,272,9.0,15.0,42,0.00,,,1.21,,2013-04-12 19:27:00,
2013-04-12 15:32:00,77.0,51.0,29.67,West,267,8.0,16.0,41,0.00,,,1.21,,2013-04-12 19:32:00,
2013-04-12 15:43:00,77.0,51.0,29.67,West,267,8.0,16.0,41,0.00,,,1.21,,2013-04-12 19:43:00,
2013-04-12 15:53:00,77.0,51.0,29.67,West,276,5.0,9.0,41,0.00,,,1.21,,2013-04-12 19:53:00,
2013-04-12 16:02:00,77.0,51.0,29.67,WNW,284,3.0,13.0,40,0.00,,,1.21,,2013-04-12 20:02:00,
2013-04-12 16:22:00,76.0,49.0,29.67,NW,312,5.0,12.0,38,0.00,,,1.21,,2013-04-12 20:22:00,
2013-04-12 16:32:00,76.0,48.0,29.67,WNW,287,3.0,9.0,37,0.00,,,1.21,,2013-04-12 20:32:00,
2013-04-12 16:42:00,76.0,48.0,29.67,WNW,287,3.0,9.0,37,0.00,,,1.21,,2013-04-12 20:42:00,
2013-04-12 16:52:00,75.0,45.0,29.67,NNW,327,5.0,13.0,35,0.00,,,1.21,,2013-04-12 20:52:00,
2013-04-12 17:02:00,75.0,46.0,29.68,NW,321,4.0,12.0,36,0.00,,,1.21,,2013-04-12 21:02:00,
2013-04-12 17:12:00,75.0,46.0,29.68,NW,321,4.0,12.0,36,0.00,,,1.21,,2013-04-12 21:12:00,
2013-04-12 17:22:00,75.0,45.0,29.69,NNW,342,5.0,12.0,35,0.00,,,1.21,,2013-04-12 21:22:00,
2013-04-12 17:33:00,74.0,45.0,29.70,NW,325,5.0,13.0,36,0.00,,,1.21,,2013-04-12 21:33:00,
2013-04-12 17:43:00,74.0,45.0,29.70,NW,325,5.0,13.0,36,0.00,,,1.21,,2013-04-12 21:43:00,
2013-04-12 17:53:00,73.0,43.0,29.70,WNW,296,4.0,12.0,34,0.00,,,1.21,,2013-04-12 21:53:00,
2013-04-12 18:02:00,73.0,44.0,29.71,NNW,341,4.0,11.0,35,0.00,,,1.21,,2013-04-12 22:02:00,
2013-04-12 18:13:00,73.0,44.0,29.71,NNW,341,4.0,11.0,35,0.00,,,1.21,,2013-04-12 22:13:00,
2013-04-12 18:22:00,73.0,41.0,29.71,WNW,303,5.0,11.0,32,0.00,,,1.21,,2013-04-12 22:22:00,
2013-04-12 18:33:00,73.0,38.0,29.71,NW,322,6.0,12.0,28,0.00,,,1.21,,2013-04-12 22:33:00,
2013-04-12 18:42:00,73.0,38.0,29.71,NW,322,6.0,12.0,28,0.00,,,1.21,,2013-04-12 22:42:00,
2013-04-12 18:52:00,73.0,40.0,29.71,NW,322,3.0,11.0,30,0.00,,,1.21,,2013-04-12 22:52:00,
2013-04-12 19:04:00,72.0,38.0,29.71,North,355,5.0,10.0,29,0.00,,,1.21,,2013-04-12 23:04:00,
2013-04-12 19:12:00,72.0,38.0,29.71,North,355,5.0,10.0,29,0.00,,,1.21,,2013-04-12 23:12:00,
2013-04-12 19:22:00,71.0,38.0,29.72,NW,313,3.0,8.0,30,0.00,,,1.21,,2013-04-12 23:22:00,
2013-04-12 19:32:00,70.0,39.0,29.72,WNW,290,5.0,11.0,32,0.00,,,1.21,,2013-04-12 23:32:00,
2013-04-12 19:42:00,70.0,39.0,29.72,WNW,290,5.0,11.0,32,0.00,,,1.21,,2013-04-12 23:42:00,
2013-04-12 19:52:00,68.0,40.0,29.73,NW,309,3.0,6.0,36,0.00,,,1.21,,2013-04-12 23:52:00,
2013-04-12 20:02:00,67.0,41.0,29.74,WNW,287,4.0,9.0,39,0.00,,,1.21,,2013-04-13 00:02:00,
2013-04-12 20:12:00,67.0,41.0,29.74,WNW,287,4.0,9.0,39,0.00,,,1.21,,2013-04-13 00:12:00,
2013-04-12 20:22:00,66.0,40.0,29.75,NW,313,4.0,10.0,39,0.00,,,1.21,,2013-04-13 00:22:00,
2013-04-12 20:32:00,65.0,41.0,29.75,NW,324,4.0,7.0,41,0.00,,,1.21,,2013-04-13 00:32:00,
2013-04-12 20:42:00,65.0,41.0,29.75,NW,324,4.0,7.0,41,0.00,,,1.21,,2013-04-13 00:42:00,
2013-04-12 20:52:00,64.0,40.0,29.76,NW,315,5.0,10.0,41,0.00,,,1.21,,2013-04-13 00:52:00,
2013-04-12 21:02:00,64.0,39.0,29.77,NW,318,5.0,12.0,40,0.00,,,1.21,,2013-04-13 01:02:00,
2013-04-12 21:13:00,64.0,39.0,29.77,NW,318,5.0,12.0,40,0.00,,,1.21,,2013-04-13 01:13:00,
2013-04-12 21:22:00,63.0,39.0,29.80,NW,308,3.0,8.0,41,0.00,,,1.21,,2013-04-13 01:22:00,
2013-04-12 21:32:00,62.0,39.0,29.81,NW,307,3.0,5.0,43,0.00,,,1.21,,2013-04-13 01:32:00,
2013-04-12 21:43:00,62.0,39.0,29.81,NW,307,3.0,5.0,43,0.00,,,1.21,,2013-04-13 01:43:00,
2013-04-12 21:52:00,61.0,40.0,29.82,WNW,287,3.0,8.0,46,0.00,,,1.21,,2013-04-13 01:52:00,
2013-04-12 22:02:00,60.0,41.0,29.83,WNW,297,2.0,4.0,49,0.00,,,1.21,,2013-04-13 02:02:00,
2013-04-12 22:12:00,60.0,41.0,29.83,WNW,297,2.0,4.0,49,0.00,,,1.21,,2013-04-13 02:12:00,
2013-04-12 22:23:00,59.0,41.0,29.84,West,271,3.0,6.0,51,0.00,,,1.21,,2013-04-13 02:23:00,
2013-04-12 22:32:00,59.0,41.0,29.84,WNW,290,3.0,6.0,51,0.00,,,1.21,,2013-04-13 02:32:00,
2013-04-12 22:42:00,59.0,41.0,29.84,WNW,290,3.0,6.0,51,0.00,,,1.21,,2013-04-13 02:42:00,
2013-04-12 22:53:00,59.0,42.0,29.84,WNW,285,3.0,7.0,53,0.00,,,1.21,,2013-04-13 02:53:00,
2013-04-12 23:02:00,58.0,41.0,29.84,WNW,285,3.0,8.0,54,0.00,,,1.21,,2013-04-13 03:02:00,
2013-04-12 23:12:00,58.0,41.0,29.84,WNW,285,3.0,8.0,54,0.00,,,1.21,,2013-04-13 03:12:00,
2013-04-12 23:23:00,58.0,41.0,29.83,WNW,297,3.0,6.0,53,0.00,,,1.00,,2013-04-13 03:23:00,
2013-04-12 23:33:00,58.0,41.0,29.84,NW,319,4.0,7.0,53,0.00,,,1.00,,2013-04-13 03:33:00,
2013-04-12 23:42:00,58.0,41.0,29.84,NW,319,4.0,7.0,53,0.00,,,1.00,,2013-04-13 03:42:00,
2013-04-12 23:53:00,58.0,39.0,29.84,West,281,5.0,9.0,50,0.00,,,1.00,,2013-04-13 03:53:00,